C/2019 V1 ( Borisov )

Japanese version
Home page
Updated on December 24, 2019

---------------------------------------------------------------------

* Profile

Discovery Date November 2, 2019
Magnitude 19.0 mag
Discoverer G. Borisov (MARGO observatory near Nauchnij, Crimea)

* Pictures

* Orbital Elements

Epoch 2020 July 10.0 TT = JDT 2459040.5
T 2020 July 16.51557 TT                                 Williams
q   3.0984659            (2000.0)            P               Q
z  +0.0006426      Peri.   51.16216     -0.29060589     -0.38585349
 +/-0.0003938      Node    83.20564     +0.33799451     -0.89748960
e   0.9980090      Incl.   61.85867     +0.89515805     +0.21361062
From 60 observations 2019 Nov. 2-Dec. 7, mean residual 0".5.

* Magnitudes Graph

        m1 = 10.5 + 5 log d + 10.0 log r

---------------------------------------------------------------------

The orbital elements are published on M.P.E.C. 2019-X94.
The magnitudes graphs are made with Comet for Windows.

---------------------------------------------------------------------

Copyright(C) Seiichi Yoshida (comet@aerith.net). All rights reserved.